Shoreham, United Kingdom

5:05 AM BST on May 29, 2017 (GMT +0100)
Shoreham

Weather History for EGKA - November, 2011

Change the Weather History Date:

Friday, November 25, 2011

  Actual Average Record
Temperature  
Mean Temperature 49 °F -  
Max Temperature 55 °F 46 °F 57 °F (2006)
Min Temperature 42 °F 40 °F 32 °F (2005)
Degree Days  
Heating Degree Days 16    
Moisture  
Dew Point 44 °F    
Average Humidity 76    
Maximum Humidity 98    
Minimum Humidity 49    
Precipitation  
Precipitation 0.01 in - - ()
Sea Level Pressure  
Sea Level Pressure 30.30 in    
Wind  
Wind Speed 12 mph ()    
Max Wind Speed 23 mph    
Max Gust Speed -    
Visibility 6.2 miles    
Events      
Averages and records for this station are not official NWS values.
T = Trace of Precipitation, MM = Missing Value Source: Averaged Metar Reports

Daily Weather History Graph

Daily Weather History Graph

Search for Another Location

Airport or City:

Trip Planner

Search our weather history database for the weather conditions in past years. The results will help you decide how hot, cold, wet, or windy it might be!

Date:

Astronomy

Nov. 25, 2011 Rise Set
Actual Time 7:32 AM GMT 4:03 PM GMT
Civil Twilight 6:54 AM GMT 4:40 PM GMT
Nautical Twilight 6:13 AM GMT 5:21 PM GMT
Astronomical Twilight 5:34 AM GMT 6:01 PM GMT
Moon 7:49 AM GMT (11/25) 4:09 PM GMT (11/25)
Length of Visible Light 9h 46m
Length of Day
8h 31m
New Moon, 0% of the Moon is Illuminated
Nov 25
New Moon
Dec 2
First Quarter
Dec 10
Full
Dec 18
Last Quarter
Dec 24
New

Hourly Weather History & Observations

Time (GMT) Temp. Windchill Dew Point Humidity Pressure Visibility Wind Dir Wind Speed Gust Speed Precip Events Conditions
2:50 AM 55 °F - 52 °F 88% 30.20 in - SW 23.0 mph - -  
5:50 AM 55 °F - 54 °F 98% 30.19 in - SW 20.7 mph - -  
7:50 AM 53.6 °F - 48.2 °F 82% 30.21 in 6.2 mi WNW 10.4 mph - N/A   Partly Cloudy
8:20 AM 50.0 °F - 46.4 °F 87% 30.21 in 6.2 mi WNW 6.9 mph - N/A   Partly Cloudy
8:50 AM 51.8 °F - 48.2 °F 88% 30.24 in 6.2 mi West 6.9 mph - N/A   Partly Cloudy
9:20 AM 51.8 °F - 48.2 °F 88% 30.27 in 6.2 mi West 10.4 mph - N/A   Partly Cloudy
9:50 AM 51.8 °F - 48.2 °F 88% 30.27 in - West 12.7 mph - N/A   Clear
10:20 AM 53.6 °F - 48.2 °F 82% 30.27 in - West 10.4 mph - N/A   Clear
10:50 AM 53.6 °F - 46.4 °F 77% 30.27 in 6.2 mi West 11.5 mph - N/A   Partly Cloudy
11:20 AM 53.6 °F - 48.2 °F 82% 30.30 in 6.2 mi West 16.1 mph - N/A   Scattered Clouds
11:50 AM 54 °F - 46 °F 65% 30.30 in - West 15.0 mph - -  
11:50 AM 53.6 °F - 46.4 °F 77% 30.30 in 6.2 mi West 12.7 mph - N/A   Scattered Clouds
12:20 PM 53.6 °F - 46.4 °F 77% 30.30 in 6.2 mi WNW 17.3 mph - N/A   Scattered Clouds
12:50 PM 53.6 °F - 44.6 °F 72% 30.30 in 6.2 mi West 13.8 mph - N/A   Scattered Clouds
1:20 PM 53.6 °F - 41.0 °F 62% 30.30 in 6.2 mi WNW 16.1 mph - N/A   Partly Cloudy
1:50 PM 53.6 °F - 41.0 °F 62% 30.30 in 6.2 mi West 11.5 mph - N/A   Partly Cloudy
2:20 PM 53.6 °F - 41.0 °F 62% 30.30 in 6.2 mi West 12.7 mph - N/A   Partly Cloudy
2:50 PM 53 °F - 40 °F 49% 30.32 in - West 15.0 mph - -  
2:50 PM 51.8 °F - 39.2 °F 62% 30.30 in 6.2 mi West 16.1 mph - N/A   Partly Cloudy
3:20 PM 51.8 °F - 39.2 °F 62% 30.33 in 6.2 mi WNW 9.2 mph - N/A   Partly Cloudy
3:50 PM 50.0 °F - 39.2 °F 66% 30.33 in 6.2 mi WNW 10.4 mph - N/A   Partly Cloudy
4:20 PM 48.2 °F - 39.2 °F 71% 30.33 in - West 10.4 mph - N/A   Clear
4:50 PM 46.4 °F 43.5 °F 39.2 °F 76% 30.33 in - West 5.8 mph - N/A   Clear
5:20 PM 46.4 °F 42.4 °F 39.2 °F 76% 30.33 in - West 8.1 mph - N/A   Clear
5:50 PM 45 °F - 40 °F 76% 30.38 in - West 5.8 mph - -  
5:50 PM 46.4 °F 44.3 °F 41.0 °F 81% 30.36 in - West 4.6 mph - N/A   Clear
8:50 PM 43 °F - 39 °F 82% 30.43 in - West 6.9 mph - -  
11:50 PM 42 °F - 40 °F 89% 30.43 in - WSW 5.8 mph - -